Tracking 35237 objects as of 6-Sep-2026
HD Live streaming from Space Station
objects crossing your sky now

SL-3 R/B


SL-3 R/B is no longer on orbit


NORAD ID: 2996
Int'l Code: 1967-098B
Launch date: October 16, 1967
Source: Commonwealth of Independent States (former USSR) (CIS)
Launch site: TYURATAM MISSILE AND SPACE COMPLEX (TTMTR)
Decay date: 1967-10-24

Note: This is a ROCKET BODY
Your satellite tracking list
Your tracking list is empty




NASA's NSSDC Master Catalog

Two Line Element Set (TLE):
1 02996U 67098  B 67295.35089414  .02205318 +00000-0 +00000-0 0  9990
2 02996 064.9150 157.9282 0058381 033.0199 327.4489 16.21613984000971
Source of the keplerian elements: AFSPC